Regional Weather Roundup
Issued by NWS

Home | Current Version | Previous Version | Text Only | Print | Product List | Glossary On
Versions: 1 2 3 4 5 6 7 8 9 10 11 12 13 14 15 16 17 18 19 20 21 22 23 24 25 26 27 28 29 30 31 32 33 34 35 36 37 38 39 40 41 42 43 44 45 46 47 48 49 50
000
ASUS43 KMPX 220401
RWRMN
WEATHER ROUNDUP FOR MINNESOTA
NATIONAL WEATHER SERVICE TWIN CITIES/CHANHASSEN MN
1000 PM CST FRI NOV 21 2014


NOTE: "FAIR" INDICATES FEW OR NO CLOUDS BELOW 12,000 FEET WITH NO
SIGNIFICANT WEATHER AND/OR OBSTRUCTIONS TO VISIBILITY. N/A MEANS
CURRENT SKY AND/OR WEATHER CONDITIONS ARE NOT AVAILABLE.

MNZ060>063-068>070-220500-
   Twin Cities Metro

CITY           SKY/WX    TMP DP  RH WIND       PRES   REMARKS
TWIN CITIES    MOCLDY    31  24  75 S10       29.91F WCI  22
ST PAUL        CLOUDY    30  24  78 S9        29.93S WCI  22
CRYSTAL        MOCLDY    32  24  72 S13       29.88F WCI  22
BLAINE         MOCLDY    32  27  80 S12       29.88F WCI  23
LAKEVILLE      MOCLDY    30  27  86 S13G18    29.90F WCI  20
EDEN PRAIRIE   PTCLDY    31  25  78 SW16G22   29.89F WCI  20
SOUTH ST PAUL  CLOUDY    32  26  77 S12G17    29.91F WCI  23
LAKE ELMO      FAIR      32  27  80 S14G22    29.92S WCI  22
$$
MNZ001>005-007-008-013>017-022>024-027-028-220500-
   Northwest Minnesota

CITY           SKY/WX    TMP DP  RH WIND       PRES   REMARKS
BEMIDJI        PTCLDY    29  24  82 S10       29.64F WCI  20
HALLOCK        CLEAR     27  23  86 S7        29.55S WCI  19
ROSEAU         CLEAR     30  25  80 SW16      29.53S WCI  19
WARROAD        CLEAR     30  25  80 SW14G22   29.53S WCI  20
THIEF RVR FALL CLEAR     28  25  86 S15       29.61S WCI  17
CROOKSTON      CLEAR     28  25  86 SW14      29.64S WCI  17
FOSSTON        PTCLDY    27  23  86 S16       29.65S WCI  14
DETROIT LAKES  PTCLDY    32  28  86 SW10      29.70S WCI  24
MOORHEAD       PTCLDY    30  28  93 S12       29.71F WCI  21
PARK RAPIDS    PTCLDY    24  21  88 S9        29.69F WCI  14
MAHNOMEN       FAIR      28  25  86 S18       29.67S WCI  16
$$
MNZ006-009>011-018-025>026-220500-
   North Central Minnesota

CITY           SKY/WX    TMP DP  RH WIND       PRES   REMARKS
BAUDETTE       CLEAR     27  21  78 S9        29.55F WCI  18
FLAG ISLAND    PTCLDY    28  23  80 SW14G21   29.51S WCI  17
INTL FALLS     CLEAR     27  21  78 SW9G18    29.59F WCI  18
WASKISH        PTCLDY    28  25  86 S5        29.61F WCI  23
BIG FORK       PTCLDY    28  23  80 S12G21    29.65F WCI  18
LONGVILLE      MOCLDY    28  25  86 S12G18    29.69F WCI  18
GRAND RAPIDS   CLOUDY    28  21  74 S15       29.68F WCI  17
CRANE LAKE     PTCLDY    27  21  80 S7G16     29.65R WCI  19
ORR            PTCLDY    27  19  74 S9G17     29.61S WCI  17
COOK           MOCLDY    28  21  74 SW12G23   29.66S WCI  18
WALKER         FAIR      28  24  84 SW13      29.68S WCI  18
$$
MNZ012-019>021-037-220500-
   Northeast Minnesota

CITY           SKY/WX    TMP DP  RH WIND       PRES   REMARKS
DULUTH         MOCLDY    27  20  75 SW21G31   29.73F WCI  13
ELY            PTCLDY    25  19  80 SW12G18   29.65F WCI  14
HIBBING        MOCLDY    29  21  72 S12G20    29.69F WCI  19
EVELETH        MOCLDY    28  21  74 SW16G22   29.70F WCI  17
DULUTH HARBOR  PTCLDY    30  21  69 SW16G22   29.79F WCI  19
TWO HARBORS    MOCLDY    30  21  69 SW15G21   29.74F WCI  19
SILVER BAY     MOCLDY    28  21  74 SW12G24   29.72F WCI  18
GRAND MARAIS     N/A     34  28  79 SW32G46   29.73F WCI  20
$$
MNZ029>031-032-039>041-046>048-054>057-064-220500-
   West Central Minnesota

CITY           SKY/WX    TMP DP  RH WIND       PRES   REMARKS
FERGUS FALLS   PTCLDY    28  25  86 S12       29.76F WCI  18
WHEATON        CLOUDY    34  28  80 S9        29.76F WCI  26
MORRIS         PTCLDY    30  27  86 S15       29.74F WCI  19
ALEXANDRIA     PTCLDY    29  25  85 S14       29.77S WCI  18
ELBOW LAKE       N/A     29  27  90 S14       29.74F WCI  19
WADENA         PTCLDY    28  25  86 S12       29.72F WCI  18
GLENWOOD       PTCLDY    30  27  86 S16       29.77F WCI  19
APPLETON       PTCLDY    36  28  75 S10       29.78F
BENSON         MOCLDY    28  25  86 SW12      29.79F WCI  18
ORTONVILLE     MOCLDY    37  28  70 S7        29.77F
MADISON        MOCLDY    39  34  81 SW15      29.79F
WILLMAR        FAIR      28  25  86 CALM      29.83F
$$
MNZ033>034-036-042>043-049>051-058-059-220500-
   Central Minnesota

CITY           SKY/WX    TMP DP  RH WIND       PRES   REMARKS
ST CLOUD       CLOUDY    30  23  75 S17       29.83F WCI  18
SAUK CENTRE    MOCLDY    28  24  87 S9        29.79F WCI  19
PAYNESVILLE    PTCLDY    25  22  91 SE12      29.82S WCI  14
AITKIN         CLOUDY    30  25  80 S15       29.72F WCI  19
PINE RIVER     MOCLDY    27  25  93 S7        29.76F WCI  19
BRAINERD       MOCLDY    27  23  85 S17G24    29.74F WCI  14
STAPLES        PTCLDY    28  25  86 S12       29.73S WCI  18
LONG PRAIRIE   CLOUDY    28  25  86 S13       29.77F WCI  18
LITTLE FALLS   MOCLDY    30  25  80 S9        29.79F WCI  22
LITCHFIELD     MOCLDY    28  27  93 S6        29.84F WCI  22
BUFFALO        MOCLDY    30  24  78 S13G21    29.87F WCI  20
MAPLE LAKE     MOCLDY    30  26  83 S10G17    29.86F WCI  21
$$
MNZ037-044-045-052-053-220500-
   East Central Minnesota

CITY           SKY/WX    TMP DP  RH WIND       PRES   REMARKS
PRINCETON      CLOUDY    30  25  80 S12G17    29.85S WCI  21
MORA             N/A    N/A N/A N/A MISG        N/A
CAMBRIDGE      MOCLDY    32  21  64 S12       29.83F WCI  23
RUSH CITY      CLOUDY    27  22  79 S9        29.86S WCI  18
MOOSE LAKE     MOCLDY    27  21  80 S10G20    29.77F WCI  17
HINCKLEY       FAIR      28  23  80 CALM      29.84S
CLOQUET        MOCLDY    27  19  74 S16G22    29.75F WCI  14
MCGREGOR       CLOUDY    30  25  80 S14G21    29.75F WCI  20
$$
MNZ071>073-080-081-089-090-097-098-220500-
   Southwest Minnesota

CITY           SKY/WX    TMP DP  RH WIND       PRES   REMARKS
MONTEVIDEO     PTCLDY    30  27  86 SW8       29.83S WCI  23
GRANITE FALLS  CLEAR     31  27  84 S5        29.84R WCI  26
CANBY          CLOUDY    37  31  79 SW12G20   29.81R
MARSHALL       MOCLDY    37  27  65 SW26G32   29.79F
REDWOOD FALLS  PTCLDY    33  27  78 S16       29.84F WCI  23
OLIVIA         PTCLDY    32  27  80 S12       29.82F WCI  23
PIPESTONE      MOCLDY    32  28  86 SW18      29.83F WCI  20
WINDOM         CLOUDY    34  28  80 S13G21    29.87F WCI  25
WORTHINGTON    PTCLDY    30  27  86 SW25G31   29.86F WCI  16
JACKSON        CLOUDY    34  30  86 S17G25    29.88F WCI  23
TRACY          MOCLDY    34  28  79 SW25G33   29.82F WCI  21
SLAYTON        PTCLDY    32  28  85 SW32G40   29.82S WCI  17
$$
MNZ065>067-074>077-082>085-091>093-220500-
   South Central Minnesota

CITY           SKY/WX    TMP DP  RH WIND       PRES   REMARKS
MANKATO        MOCLDY    32  25  74 S17G23    29.90F WCI  21
NEW ULM        PTCLDY    30  27  86 S17       29.86F WCI  18
ST JAMES       MOCLDY    32  28  86 S8        29.92F WCI  25
FAIRMONT       CLOUDY    34  28  80 S22       29.90F WCI  22
GLENCOE        PTCLDY    30  27  87 S13G18    29.86F WCI  20
FARIBAULT      CLOUDY    32  28  86 S14G22    29.92F WCI  22
OWATONNA       MOCLDY    32  27  80 S16       29.92F WCI  21
WASECA         CLOUDY    32  27  80 S18G26    29.94S WCI  20
ALBERT LEA     CLOUDY    34  28  80 S15G28    29.94F WCI  24
$$
MNZ078>079-086>088-094>096-220500-
   Southeast Minnesota

CITY           SKY/WX    TMP DP  RH WIND       PRES   REMARKS
ROCHESTER      CLOUDY    31  24  75 S26G36    29.95F WCI  17
RED WING       CLOUDY    34  27  75 S8        29.95F WCI  27
STANTON        MOCLDY    32  26  80 S15G25    29.90F WCI  22
DODGE CENTER   CLOUDY    30  27  86 S20G29    29.93F WCI  18
WINONA         CLOUDY    34  25  69 S6        30.00F WCI  29
AUSTIN         CLOUDY    30  25  80 S20       29.96S WCI  18
PRESTON        CLOUDY    30  23  75 S22G31    29.97F WCI  16
$$
ABBREVIATIONS USED IN REMARKS
   TC - TEMPERATURES IN CELSIUS
  WCI - WIND CHILL INDEX
   HX - HEAT INDEX
  VSB - VISIBILITY
$$



USA.gov is the U.S. government's official web portal to all federal, state and local government web resources and services.